Location: Sungai Anya
(2.6167°N, 114.0500°E)
Time: 12:32:07
(UTC+00:00)

Cosmos 304 Rocket - Pass Details

Date: 19 October 2021
Orbit: 678 x 688 km, 74.0° (Epoch: 28 November)

Event Time Altitude Azimuth Distance (km) Brightness Sun altitude
Rises 10:44:20 0° 191° (S) 3,029 7.4 -9.2°
Reaches altitude 10° 10:46:38 10° 190° (S) 2,112 6.6 -9.8°
Maximum altitude 10:51:23 83° 102° (ESE) 685 3.7 -10.9°
Drops below altitude 10° 10:56:08 10° 14° (NNE) 2,106 6.0 -12.1°
Sets 10:58:25 0° 14° (NNE) 3,020 6.9 -12.7°
